Weather History for Aurora, CO

Change the Weather History Date:

Friday, February 8, 2013

  Actual Average Record
Temperature  
Mean Temperature 42 °F -  
Max Temperature 53 °F 42 °F 64 °F (1999)
Min Temperature 30 °F 19 °F -4 °F (2011)
Degree Days  
Heating Degree Days 24    
Moisture  
Dew Point 18 °F    
Average Humidity 46    
Maximum Humidity 60    
Minimum Humidity 22    
Precipitation  
Precipitation 0.00 in - - ()
Sea Level Pressure  
Sea Level Pressure 29.80 in    
Wind  
Wind Speed 13 mph (SSW)    
Max Wind Speed 20 mph    
Max Gust Speed 33 mph    
Visibility 10 miles    
Events      
Averages and records for this station are not official NWS values.
T = Trace of Precipitation, MM = Missing Value Source: NWS Daily Summary

Daily Weather History Graph

Daily Weather History Graph

Search for Another Location

Airport:

Trip Planner

Search our weather history database for the weather conditions in past years. The results will help you decide how hot, cold, wet, or windy it might be!

Date:

Astronomy

Feb. 08, 2013 Rise Set
Actual Time 6:59 AM MST 5:27 PM MST
Civil Twilight 6:31 AM MST 5:55 PM MST
Nautical Twilight 5:59 AM MST 6:27 PM MST
Astronomical Twilight 5:28 AM MST 6:58 PM MST
Moon 5:29 AM MST (2/8) 4:03 PM MST (2/8)
Length of Visible Light 11h 24m
Length of Day
10h 28m
Waning Crescent, 3% of the Moon is Illuminated
Feb 8
Waning Crescent
Feb 10
New
Feb 17
First Quarter
Feb 25
Full
Mar 4
Last Quarter

Hourly Weather History & Observations

Time (MST) Temp. Windchill Dew Point Humidity Pressure Visibility Wind Dir Wind Speed Gust Speed Precip Events Conditions
12:55 AM 33.8 °F 22.5 °F 19.4 °F 56% 29.96 in 10.0 mi South 19.6 mph 33.4 mph N/A   Partly Cloudy
1:55 AM 33.8 °F 23.5 °F 17.6 °F 52% 29.96 in 10.0 mi South 16.1 mph - N/A   Partly Cloudy
2:55 AM 32.0 °F 22.1 °F 17.6 °F 55% 29.93 in 10.0 mi South 13.8 mph - N/A   Partly Cloudy
3:55 AM 30.2 °F 19.8 °F 15.8 °F 55% 29.91 in 10.0 mi South 13.8 mph - N/A   Partly Cloudy
4:55 AM 32.0 °F 21.6 °F 15.8 °F 51% 29.91 in 10.0 mi SSW 15.0 mph - N/A   Partly Cloudy
5:55 AM 32.0 °F 20.8 °F 15.8 °F 51% 29.92 in 10.0 mi South 17.3 mph - N/A   Partly Cloudy
6:55 AM 32.0 °F 23.6 °F 14.0 °F 48% 29.94 in 70.0 mi South 10.4 mph - N/A   Mostly Cloudy
7:55 AM 37.4 °F 29.8 °F 14.0 °F 38% 29.91 in 70.0 mi South 11.5 mph - N/A   Mostly Cloudy
8:55 AM 37.4 °F 34.9 °F 14.0 °F 38% 29.89 in 70.0 mi SW 3.5 mph - N/A   Mostly Cloudy
9:55 AM 32.0 °F 25.6 °F 17.6 °F 55% 29.91 in 70.0 mi NW 6.9 mph - N/A   Mostly Cloudy
10:55 AM 33.8 °F 30.8 °F 15.8 °F 48% 29.90 in 70.0 mi NNW 3.5 mph - N/A   Mostly Cloudy
11:55 AM 44.6 °F 42.2 °F 19.4 °F 37% 29.80 in 70.0 mi WSW 4.6 mph - N/A   Scattered Clouds
12:55 PM 51.8 °F - 15.8 °F 24% 29.73 in 70.0 mi South 11.5 mph 17.3 mph N/A   Partly Cloudy
1:55 PM 53.6 °F - 15.8 °F 22% 29.68 in 70.0 mi SE 10.4 mph - N/A   Partly Cloudy
2:55 PM 53.6 °F - 17.6 °F 24% 29.66 in 70.0 mi SSE 16.1 mph - N/A   Partly Cloudy
3:55 PM 53.6 °F - 19.4 °F 26% 29.66 in 70.0 mi South 15.0 mph - N/A   Partly Cloudy
4:55 PM 46.4 °F 41.1 °F 21.2 °F 37% 29.68 in 70.0 mi North 11.5 mph - N/A   Partly Cloudy
5:55 PM 37.4 °F 32.1 °F 19.4 °F 48% 29.71 in 25.0 mi NNW 6.9 mph - N/A   Partly Cloudy
6:55 PM 35.6 °F - 17.6 °F 48% 29.73 in 25.0 mi Calm Calm - N/A   Partly Cloudy
7:55 PM 35.6 °F 31.7 °F 19.4 °F 52% 29.71 in 10.0 mi WSW 4.6 mph - N/A   Partly Cloudy
8:55 PM 32.0 °F 26.4 °F 19.4 °F 60% 29.70 in 10.0 mi SSW 5.8 mph - N/A   Partly Cloudy
9:55 PM 32.0 °F 24.2 °F 19.4 °F 60% 29.72 in 10.0 mi South 9.2 mph - N/A   Partly Cloudy
10:55 PM 32.0 °F 22.1 °F 19.4 °F 60% 29.69 in 10.0 mi South 13.8 mph - N/A   Partly Cloudy
11:55 PM 32.0 °F 23.0 °F 19.4 °F 60% 29.64 in 10.0 mi South 11.5 mph - N/A   Partly Cloudy